#datetime,building,power
2022-10-27T00:00:00,pkn,1.20
2022-10-27T00:02:00,pkn,1.20
2022-10-27T00:03:00,pkn,1.20
2022-10-27T00:05:00,pkn,1.20
2022-10-27T00:08:00,pkn,2.40
2022-10-27T00:11:00,pkn,1.20
2022-10-27T00:12:00,pkn,1.20
2022-10-27T00:14:00,pkn,1.20
2022-10-27T00:16:00,pkn,1.20
2022-10-27T00:17:00,pkn,1.20
2022-10-27T00:20:00,pkn,1.20
2022-10-27T00:21:00,pkn,1.20
2022-10-27T00:23:00,pkn,1.20
2022-10-27T00:26:00,pkn,1.20
2022-10-27T00:27:00,pkn,1.20
2022-10-27T00:30:00,pkn,1.20
2022-10-27T00:32:00,pkn,1.20
2022-10-27T00:34:00,pkn,1.20
2022-10-27T00:37:00,pkn,1.20
2022-10-27T00:39:00,pkn,8.40
2022-10-27T00:40:00,pkn,3.60
2022-10-27T00:42:00,pkn,9.60
2022-10-27T00:43:00,pkn,6.00
2022-10-27T00:45:00,pkn,8.40
2022-10-27T00:47:00,pkn,9.60
2022-10-27T00:48:00,pkn,6.00
2022-10-27T00:49:00,pkn,3.60
2022-10-27T00:51:00,pkn,9.60
2022-10-27T00:53:00,pkn,9.60
2022-10-27T00:54:00,pkn,4.80
2022-10-27T00:56:00,pkn,9.60
2022-10-27T00:58:00,pkn,9.60
2022-10-27T01:00:00,pkn,9.60
2022-10-27T01:02:00,pkn,10.80
2022-10-27T01:03:00,pkn,3.60
2022-10-27T01:04:00,pkn,6.00
2022-10-27T01:06:00,pkn,3.60
2022-10-27T01:09:00,pkn,1.20
2022-10-27T01:10:00,pkn,1.20
2022-10-27T01:12:00,pkn,1.20
2022-10-27T01:14:00,pkn,1.20
2022-10-27T01:15:00,pkn,1.20
2022-10-27T01:17:00,pkn,1.20
2022-10-27T01:19:00,pkn,3.60
2022-10-27T01:20:00,pkn,6.00
2022-10-27T01:21:00,pkn,1.20
2022-10-27T01:22:00,pkn,8.40
2022-10-27T01:23:00,pkn,1.20
2022-10-27T01:24:00,pkn,7.20
2022-10-27T01:25:00,pkn,5.99
2022-10-27T01:26:00,pkn,3.60
2022-10-27T01:28:00,pkn,9.60
2022-10-27T01:30:00,pkn,9.60
2022-10-27T01:32:00,pkn,1.20
2022-10-27T01:34:00,pkn,1.20
2022-10-27T01:35:00,pkn,1.20
2022-10-27T01:37:00,pkn,1.20
2022-10-27T01:39:00,pkn,1.20
2022-10-27T01:41:00,pkn,1.20
2022-10-27T01:43:00,pkn,1.20
2022-10-27T01:45:00,pkn,1.20
2022-10-27T01:47:00,pkn,1.20
2022-10-27T01:48:00,pkn,1.20
2022-10-27T01:50:00,pkn,7.20
2022-10-27T01:52:00,pkn,9.60
2022-10-27T01:54:00,pkn,9.60
2022-10-27T01:56:00,pkn,9.60
2022-10-27T01:58:00,pkn,8.40
2022-10-27T02:00:00,pkn,3.60
2022-10-27T02:01:00,pkn,1.20
2022-10-27T02:04:00,pkn,1.20
2022-10-27T02:05:00,pkn,1.20
2022-10-27T02:07:00,pkn,1.20
2022-10-27T02:08:00,pkn,1.20
2022-10-27T02:11:00,pkn,1.20
2022-10-27T02:12:00,pkn,1.20
2022-10-27T02:14:00,pkn,1.20
2022-10-27T02:17:00,pkn,1.20
2022-10-27T02:19:00,pkn,1.20
2022-10-27T02:21:00,pkn,1.20
2022-10-27T02:23:00,pkn,1.20
2022-10-27T02:25:00,pkn,1.20
2022-10-27T02:26:00,pkn,4.80
2022-10-27T02:27:00,pkn,3.60
2022-10-27T02:29:00,pkn,9.60
2022-10-27T02:30:00,pkn,4.80
2022-10-27T02:32:00,pkn,9.60
2022-10-27T02:33:00,pkn,3.60
2022-10-27T02:34:00,pkn,3.60
2022-10-27T02:38:00,pkn,1.20
2022-10-27T02:39:00,pkn,1.20
2022-10-27T02:41:00,pkn,1.20
2022-10-27T02:43:00,pkn,1.20
2022-10-27T02:45:00,pkn,1.20
2022-10-27T02:47:00,pkn,1.20
2022-10-27T02:50:00,pkn,1.20
2022-10-27T02:52:00,pkn,1.20
2022-10-27T02:54:00,pkn,1.20
2022-10-27T02:55:00,pkn,1.20
2022-10-27T02:57:00,pkn,1.20
2022-10-27T02:58:00,pkn,1.20
2022-10-27T03:00:00,pkn,1.20
2022-10-27T03:02:00,pkn,1.20
2022-10-27T03:05:00,pkn,2.40
2022-10-27T03:07:00,pkn,1.20
2022-10-27T03:09:00,pkn,1.20
2022-10-27T03:11:00,pkn,2.40
2022-10-27T03:12:00,pkn,1.20
2022-10-27T03:13:00,pkn,8.40
2022-10-27T03:15:00,pkn,8.40
2022-10-27T03:17:00,pkn,10.80
2022-10-27T03:18:00,pkn,4.80
2022-10-27T03:19:00,pkn,2.40
2022-10-27T03:23:00,pkn,1.20
2022-10-27T03:25:00,pkn,1.20
2022-10-27T03:26:00,pkn,1.20
2022-10-27T03:29:00,pkn,1.20
2022-10-27T03:31:00,pkn,1.20
2022-10-27T03:34:00,pkn,1.20
2022-10-27T03:36:00,pkn,1.20
2022-10-27T03:37:00,pkn,1.20
2022-10-27T03:39:00,pkn,1.20
2022-10-27T03:42:00,pkn,1.20
2022-10-27T03:44:00,pkn,1.20
2022-10-27T03:46:00,pkn,1.20
2022-10-27T03:48:00,pkn,1.20
2022-10-27T03:49:00,pkn,1.20
2022-10-27T03:53:00,pkn,1.20
2022-10-27T03:54:00,pkn,1.20
2022-10-27T03:57:00,pkn,1.20
2022-10-27T03:59:00,pkn,1.20
2022-10-27T04:01:00,pkn,1.20
2022-10-27T04:03:00,pkn,1.20
2022-10-27T04:05:00,pkn,1.20
2022-10-27T04:07:00,pkn,1.20
2022-10-27T04:10:00,pkn,1.20
2022-10-27T04:12:00,pkn,1.20
2022-10-27T04:13:00,pkn,1.20
2022-10-27T04:14:00,pkn,6.00
2022-10-27T04:16:00,pkn,9.60
2022-10-27T04:18:00,pkn,8.40
2022-10-27T04:20:00,pkn,8.40
2022-10-27T04:21:00,pkn,4.80
2022-10-27T04:23:00,pkn,2.40
2022-10-27T04:25:00,pkn,1.20
2022-10-27T04:27:00,pkn,1.20
2022-10-27T04:29:00,pkn,1.20
2022-10-27T04:32:00,pkn,1.20
2022-10-27T04:34:00,pkn,1.20
2022-10-27T04:36:00,pkn,1.20
2022-10-27T04:40:00,pkn,1.20
2022-10-27T04:42:00,pkn,1.20
2022-10-27T04:44:00,pkn,1.20
2022-10-27T04:46:00,pkn,1.20
2022-10-27T04:48:00,pkn,1.20
2022-10-27T04:49:00,pkn,1.20
2022-10-27T04:52:00,pkn,1.20
2022-10-27T04:53:00,pkn,1.20
2022-10-27T04:55:00,pkn,1.20
2022-10-27T04:58:00,pkn,1.20
2022-10-27T05:01:00,pkn,1.20
2022-10-27T05:04:00,pkn,1.20
2022-10-27T05:05:00,pkn,1.20
2022-10-27T05:08:00,pkn,1.20
2022-10-27T05:10:00,pkn,2.40
2022-10-27T05:12:00,pkn,1.20
2022-10-27T05:14:00,pkn,1.20
2022-10-27T05:15:00,pkn,1.20
2022-10-27T05:17:00,pkn,1.20
2022-10-27T05:19:00,pkn,1.20
2022-10-27T05:20:00,pkn,1.20
2022-10-27T05:22:00,pkn,1.20
2022-10-27T05:24:00,pkn,1.20
2022-10-27T05:26:00,pkn,1.20
2022-10-27T05:28:00,pkn,1.20
2022-10-27T05:32:00,pkn,1.20
2022-10-27T05:34:00,pkn,1.20
2022-10-27T05:36:00,pkn,1.20
2022-10-27T05:39:00,pkn,1.20
2022-10-27T05:41:00,pkn,1.20
2022-10-27T05:42:00,pkn,1.20
2022-10-27T05:45:00,pkn,9.60
2022-10-27T05:46:00,pkn,3.60
2022-10-27T05:47:00,pkn,4.80
2022-10-27T05:48:00,pkn,4.80
2022-10-27T05:49:00,pkn,1.20
2022-10-27T05:50:00,pkn,7.20
2022-10-27T05:52:00,pkn,9.60
2022-10-27T05:53:00,pkn,4.80
2022-10-27T05:55:00,pkn,6.00
2022-10-27T05:57:00,pkn,1.20
2022-10-27T05:58:00,pkn,1.20
2022-10-27T06:01:00,pkn,1.20
2022-10-27T06:03:00,pkn,1.20
2022-10-27T06:05:00,pkn,1.20
2022-10-27T06:08:00,pkn,1.20
2022-10-27T06:11:00,pkn,1.20
2022-10-27T06:12:00,pkn,1.20
2022-10-27T06:14:00,pkn,1.20
2022-10-27T06:17:00,pkn,1.20
2022-10-27T06:19:00,pkn,1.20
2022-10-27T06:22:00,pkn,1.20
2022-10-27T06:24:00,pkn,1.20
2022-10-27T06:26:00,pkn,1.20
2022-10-27T06:28:00,pkn,1.20
2022-10-27T06:29:00,pkn,1.20
2022-10-27T06:33:00,pkn,1.20
2022-10-27T06:34:00,pkn,1.20
2022-10-27T06:37:00,pkn,2.40
2022-10-27T06:40:00,pkn,1.20
2022-10-27T06:41:00,pkn,1.20
2022-10-27T06:42:00,pkn,1.20
2022-10-27T06:44:00,pkn,1.20
2022-10-27T06:46:00,pkn,1.20
2022-10-27T06:48:00,pkn,1.20
2022-10-27T06:49:00,pkn,1.20
2022-10-27T06:51:00,pkn,1.20
2022-10-27T06:53:00,pkn,1.20
2022-10-27T06:56:00,pkn,1.20
2022-10-27T06:58:00,pkn,1.20
2022-10-27T07:00:00,pkn,1.20
2022-10-27T07:03:00,pkn,1.20
2022-10-27T07:06:00,pkn,1.20
2022-10-27T07:08:00,pkn,1.20
2022-10-27T07:10:00,pkn,1.20
2022-10-27T07:11:00,pkn,1.20
2022-10-27T07:13:00,pkn,1.20
2022-10-27T07:16:00,pkn,2.40
2022-10-27T07:19:00,pkn,1.20
2022-10-27T07:21:00,pkn,1.20
2022-10-27T07:23:00,pkn,1.20
2022-10-27T07:25:00,pkn,1.20
2022-10-27T07:26:00,pkn,1.20
2022-10-27T07:28:00,pkn,1.20
2022-10-27T07:30:00,pkn,1.20
2022-10-27T07:32:00,pkn,1.20
2022-10-27T07:34:00,pkn,1.20
2022-10-27T07:35:00,pkn,1.20
2022-10-27T07:37:00,pkn,1.20
2022-10-27T07:39:00,pkn,1.20
2022-10-27T07:42:00,pkn,1.20
2022-10-27T07:44:00,pkn,1.20
2022-10-27T07:46:00,pkn,1.20
2022-10-27T07:48:00,pkn,1.20
2022-10-27T07:50:00,pkn,1.20
2022-10-27T07:51:00,pkn,1.20
2022-10-27T07:52:00,pkn,1.20
2022-10-27T07:54:00,pkn,1.20
2022-10-27T07:57:00,pkn,8.40
2022-10-27T07:58:00,pkn,6.00
2022-10-27T08:00:00,pkn,9.60
2022-10-27T08:01:00,pkn,3.60
2022-10-27T08:03:00,pkn,9.60
2022-10-27T08:05:00,pkn,8.40
2022-10-27T08:07:00,pkn,9.60
2022-10-27T08:09:00,pkn,4.80
2022-10-27T08:12:00,pkn,2.40
2022-10-27T08:14:00,pkn,1.20
2022-10-27T08:15:00,pkn,1.20
2022-10-27T08:17:00,pkn,1.20
2022-10-27T08:18:00,pkn,1.20
2022-10-27T08:20:00,pkn,9.60
2022-10-27T08:21:00,pkn,3.60
2022-10-27T08:22:00,pkn,2.40
2022-10-27T08:23:00,pkn,9.60
2022-10-27T08:25:00,pkn,9.60
2022-10-27T08:26:00,pkn,4.80
2022-10-27T08:28:00,pkn,9.60
2022-10-27T08:29:00,pkn,6.00
2022-10-27T08:31:00,pkn,8.40
2022-10-27T08:32:00,pkn,6.00
2022-10-27T08:34:00,pkn,9.60
2022-10-27T08:36:00,pkn,12.00
2022-10-27T08:37:00,pkn,4.80
2022-10-27T08:39:00,pkn,14.40
2022-10-27T08:40:00,pkn,6.00
2022-10-27T08:41:00,pkn,4.80
2022-10-27T08:43:00,pkn,10.80
2022-10-27T08:44:00,pkn,4.80
2022-10-27T08:46:00,pkn,9.60
2022-10-27T08:47:00,pkn,4.80
2022-10-27T08:48:00,pkn,3.60
2022-10-27T08:49:00,pkn,7.20
2022-10-27T08:51:00,pkn,9.60
2022-10-27T08:53:00,pkn,4.80
2022-10-27T08:54:00,pkn,1.20
2022-10-27T08:56:00,pkn,1.20
2022-10-27T08:57:00,pkn,1.20
2022-10-27T08:59:00,pkn,1.20
2022-10-27T09:02:00,pkn,1.20
2022-10-27T09:03:00,pkn,1.20
2022-10-27T09:04:00,pkn,2.40
2022-10-27T09:06:00,pkn,9.60
2022-10-27T09:08:00,pkn,9.60
2022-10-27T09:09:00,pkn,3.60
2022-10-27T09:10:00,pkn,1.20
2022-10-27T09:11:00,pkn,8.40
2022-10-27T09:12:00,pkn,1.20
2022-10-27T09:13:00,pkn,8.40
2022-10-27T09:14:00,pkn,1.20
2022-10-27T09:15:00,pkn,9.60
2022-10-27T09:17:00,pkn,9.60
2022-10-27T09:19:00,pkn,7.20
2022-10-27T09:22:00,pkn,1.20
2022-10-27T09:24:00,pkn,2.40
2022-10-27T09:27:00,pkn,2.40
2022-10-27T09:30:00,pkn,2.40
2022-10-27T09:33:00,pkn,1.20
2022-10-27T09:35:00,pkn,7.20
2022-10-27T09:36:00,pkn,6.00
2022-10-27T09:38:00,pkn,8.40
2022-10-27T09:40:00,pkn,9.60
2022-10-27T09:41:00,pkn,4.80
2022-10-27T09:42:00,pkn,4.80
2022-10-27T09:44:00,pkn,9.60
2022-10-27T09:46:00,pkn,9.60
2022-10-27T09:48:00,pkn,1.20
2022-10-27T09:49:00,pkn,1.20
2022-10-27T09:50:00,pkn,1.20
2022-10-27T09:52:00,pkn,1.20
2022-10-27T09:54:00,pkn,2.40
2022-10-27T09:56:00,pkn,1.20
2022-10-27T09:58:00,pkn,1.20
2022-10-27T10:00:00,pkn,1.20
2022-10-27T10:01:00,pkn,1.20
2022-10-27T10:03:00,pkn,1.20
2022-10-27T10:04:00,pkn,1.20
2022-10-27T10:06:00,pkn,3.60
2022-10-27T10:07:00,pkn,6.00
2022-10-27T10:09:00,pkn,9.60
2022-10-27T10:11:00,pkn,9.60
2022-10-27T10:13:00,pkn,8.40
2022-10-27T10:14:00,pkn,4.80
2022-10-27T10:15:00,pkn,3.60
2022-10-27T10:16:00,pkn,1.20
2022-10-27T10:17:00,pkn,2.40
2022-10-27T10:18:00,pkn,1.20
2022-10-27T10:20:00,pkn,1.20
2022-10-27T10:22:00,pkn,1.20
2022-10-27T10:23:00,pkn,1.20
2022-10-27T10:25:00,pkn,1.20
2022-10-27T10:28:00,pkn,2.40
2022-10-27T10:30:00,pkn,1.20
2022-10-27T10:32:00,pkn,1.20
2022-10-27T10:33:00,pkn,1.20
2022-10-27T10:35:00,pkn,1.20
2022-10-27T10:38:00,pkn,1.20
2022-10-27T10:39:00,pkn,1.20
2022-10-27T10:41:00,pkn,9.60
2022-10-27T10:42:00,pkn,4.80
2022-10-27T10:44:00,pkn,9.60
2022-10-27T10:46:00,pkn,9.60
2022-10-27T10:48:00,pkn,9.60
2022-10-27T10:50:00,pkn,1.20
2022-10-27T10:52:00,pkn,1.20
2022-10-27T10:54:00,pkn,2.40
2022-10-27T10:56:00,pkn,1.20
2022-10-27T10:58:00,pkn,1.20
2022-10-27T11:01:00,pkn,6.00
2022-10-27T11:03:00,pkn,9.60
2022-10-27T11:05:00,pkn,10.80
2022-10-27T11:07:00,pkn,8.40
2022-10-27T11:08:00,pkn,1.20
2022-10-27T11:09:00,pkn,8.40
2022-10-27T11:10:00,pkn,4.80
2022-10-27T11:11:00,pkn,4.80
2022-10-27T11:12:00,pkn,3.60
2022-10-27T11:14:00,pkn,1.20
2022-10-27T11:16:00,pkn,2.40
2022-10-27T11:19:00,pkn,1.20
2022-10-27T11:20:00,pkn,1.20
2022-10-27T11:21:00,pkn,1.20
2022-10-27T11:23:00,pkn,1.20
2022-10-27T11:24:00,pkn,1.20
2022-10-27T11:25:00,pkn,1.20
2022-10-27T11:26:00,pkn,1.20
2022-10-27T11:28:00,pkn,8.40
2022-10-27T11:29:00,pkn,4.80
2022-10-27T11:31:00,pkn,9.60
2022-10-27T11:33:00,pkn,9.60
2022-10-27T11:34:00,pkn,6.00
2022-10-27T11:36:00,pkn,8.40
2022-10-27T11:37:00,pkn,4.80
2022-10-27T11:38:00,pkn,1.20
2022-10-27T11:39:00,pkn,8.40
2022-10-27T11:40:00,pkn,4.80
2022-10-27T11:42:00,pkn,3.60
2022-10-27T11:44:00,pkn,2.40
2022-10-27T11:46:00,pkn,1.20
2022-10-27T11:48:00,pkn,1.20
2022-10-27T11:49:00,pkn,1.20
2022-10-27T11:51:00,pkn,1.20
2022-10-27T11:53:00,pkn,1.20
2022-10-27T11:54:00,pkn,1.20
2022-10-27T11:56:00,pkn,1.20
2022-10-27T11:59:00,pkn,2.40
2022-10-27T12:01:00,pkn,1.20
2022-10-27T12:03:00,pkn,1.20
2022-10-27T12:04:00,pkn,2.40
2022-10-27T12:05:00,pkn,9.60
2022-10-27T12:06:00,pkn,4.80
2022-10-27T12:08:00,pkn,9.60
2022-10-27T12:10:00,pkn,9.60
2022-10-27T12:12:00,pkn,8.40
2022-10-27T12:13:00,pkn,1.20
2022-10-27T12:15:00,pkn,1.20
2022-10-27T12:18:00,pkn,2.40
2022-10-27T12:20:00,pkn,1.20
2022-10-27T12:22:00,pkn,1.20
2022-10-27T12:23:00,pkn,1.20
2022-10-27T12:25:00,pkn,1.20
2022-10-27T12:27:00,pkn,1.20
2022-10-27T12:29:00,pkn,1.20
2022-10-27T12:31:00,pkn,2.40
2022-10-27T12:34:00,pkn,1.20
2022-10-27T12:35:00,pkn,1.20
2022-10-27T12:36:00,pkn,1.20
2022-10-27T12:38:00,pkn,1.20
2022-10-27T12:40:00,pkn,4.80
2022-10-27T12:42:00,pkn,9.60
2022-10-27T12:43:00,pkn,3.60
2022-10-27T12:44:00,pkn,4.80
2022-10-27T12:46:00,pkn,9.60
2022-10-27T12:48:00,pkn,9.60
2022-10-27T12:50:00,pkn,9.59
2022-10-27T12:51:00,pkn,3.60
2022-10-27T12:53:00,pkn,9.60
2022-10-27T12:54:00,pkn,3.60
2022-10-27T12:56:00,pkn,1.20
2022-10-27T12:59:00,pkn,1.20
2022-10-27T13:01:00,pkn,2.40
2022-10-27T13:03:00,pkn,1.20
2022-10-27T13:04:00,pkn,1.20
2022-10-27T13:06:00,pkn,1.20
2022-10-27T13:08:00,pkn,1.20
2022-10-27T13:11:00,pkn,1.20
2022-10-27T13:13:00,pkn,1.20
2022-10-27T13:15:00,pkn,1.20
2022-10-27T13:16:00,pkn,1.20
2022-10-27T13:18:00,pkn,1.20
2022-10-27T13:19:00,pkn,1.20
2022-10-27T13:21:00,pkn,1.20
2022-10-27T13:22:00,pkn,1.20
2022-10-27T13:24:00,pkn,1.20
2022-10-27T13:26:00,pkn,1.20
2022-10-27T13:28:00,pkn,1.20
2022-10-27T13:30:00,pkn,1.20
2022-10-27T13:32:00,pkn,1.20
2022-10-27T13:34:00,pkn,1.20
2022-10-27T13:36:00,pkn,1.20
2022-10-27T13:37:00,pkn,1.20
2022-10-27T13:38:00,pkn,1.20
2022-10-27T13:39:00,pkn,6.00
2022-10-27T13:40:00,pkn,3.60
2022-10-27T13:42:00,pkn,9.60
2022-10-27T13:43:00,pkn,4.80
2022-10-27T13:45:00,pkn,9.60
2022-10-27T13:47:00,pkn,8.40
2022-10-27T13:50:00,pkn,2.40
2022-10-27T13:53:00,pkn,1.20
2022-10-27T13:55:00,pkn,1.20
2022-10-27T13:57:00,pkn,1.20
2022-10-27T14:00:00,pkn,1.20
2022-10-27T14:02:00,pkn,1.20
2022-10-27T14:03:00,pkn,1.20
2022-10-27T14:05:00,pkn,1.20
2022-10-27T14:07:00,pkn,1.20
2022-10-27T14:09:00,pkn,1.20
2022-10-27T14:11:00,pkn,1.20
2022-10-27T14:14:00,pkn,2.40
2022-10-27T14:17:00,pkn,1.20
2022-10-27T14:19:00,pkn,1.20
2022-10-27T14:22:00,pkn,1.20
2022-10-27T14:24:00,pkn,1.20
2022-10-27T14:28:00,pkn,1.20
2022-10-27T14:29:00,pkn,1.20
2022-10-27T14:32:00,pkn,1.20
2022-10-27T14:35:00,pkn,1.20
2022-10-27T14:38:00,pkn,1.20
2022-10-27T14:40:00,pkn,8.40
2022-10-27T14:41:00,pkn,3.60
2022-10-27T14:43:00,pkn,9.60
2022-10-27T14:45:00,pkn,9.60
2022-10-27T14:46:00,pkn,3.60
2022-10-27T14:47:00,pkn,1.20
2022-10-27T14:50:00,pkn,1.20
2022-10-27T14:52:00,pkn,1.20
2022-10-27T14:55:00,pkn,1.20
2022-10-27T14:57:00,pkn,1.20
2022-10-27T14:59:00,pkn,1.20
2022-10-27T15:01:00,pkn,1.20
2022-10-27T15:05:00,pkn,1.20
2022-10-27T15:07:00,pkn,1.20
2022-10-27T15:10:00,pkn,1.20
2022-10-27T15:14:00,pkn,1.20
2022-10-27T15:16:00,pkn,1.20
2022-10-27T15:19:00,pkn,1.20
2022-10-27T15:21:00,pkn,1.20
2022-10-27T15:25:00,pkn,1.20
2022-10-27T15:26:00,pkn,1.20
2022-10-27T15:30:00,pkn,1.20
2022-10-27T15:32:00,pkn,1.20
2022-10-27T15:35:00,pkn,1.20
2022-10-27T15:39:00,pkn,1.20
2022-10-27T15:41:00,pkn,4.80
2022-10-27T15:42:00,pkn,4.80
2022-10-27T15:44:00,pkn,9.60
2022-10-27T15:46:00,pkn,8.40
2022-10-27T15:47:00,pkn,4.80
2022-10-27T15:49:00,pkn,8.40
2022-10-27T15:51:00,pkn,1.20
2022-10-27T15:54:00,pkn,1.20
2022-10-27T15:56:00,pkn,1.20
2022-10-27T16:01:00,pkn,1.20
2022-10-27T16:03:00,pkn,1.20
2022-10-27T16:07:00,pkn,1.20
2022-10-27T16:09:00,pkn,1.20
2022-10-27T16:12:00,pkn,1.20
2022-10-27T16:14:00,pkn,1.20
2022-10-27T16:15:00,pkn,1.20
2022-10-27T16:17:00,pkn,2.40
2022-10-27T16:19:00,pkn,3.60
2022-10-27T16:20:00,pkn,2.40
2022-10-27T16:22:00,pkn,3.60
2022-10-27T16:23:00,pkn,1.20
2022-10-27T16:25:00,pkn,4.80
2022-10-27T16:26:00,pkn,3.60
2022-10-27T16:28:00,pkn,4.80
2022-10-27T16:30:00,pkn,2.40
2022-10-27T16:32:00,pkn,1.20
2022-10-27T16:36:00,pkn,1.20
2022-10-27T16:38:00,pkn,1.20
2022-10-27T16:40:00,pkn,1.20
2022-10-27T16:42:00,pkn,2.40
2022-10-27T16:43:00,pkn,2.40
2022-10-27T16:45:00,pkn,6.00
2022-10-27T16:46:00,pkn,6.00
2022-10-27T16:48:00,pkn,12.00
2022-10-27T16:50:00,pkn,13.20
2022-10-27T16:51:00,pkn,6.00
2022-10-27T16:53:00,pkn,10.80
2022-10-27T16:55:00,pkn,7.20
2022-10-27T16:57:00,pkn,6.00
2022-10-27T16:59:00,pkn,4.80
2022-10-27T17:01:00,pkn,3.60
2022-10-27T17:03:00,pkn,3.60
2022-10-27T17:04:00,pkn,1.20
2022-10-27T17:06:00,pkn,1.20
2022-10-27T17:09:00,pkn,2.40
2022-10-27T17:11:00,pkn,1.20
2022-10-27T17:13:00,pkn,1.20
2022-10-27T17:17:00,pkn,1.20
2022-10-27T17:18:00,pkn,1.20
2022-10-27T17:20:00,pkn,1.20
2022-10-27T17:22:00,pkn,1.20
2022-10-27T17:23:00,pkn,1.20
2022-10-27T17:25:00,pkn,1.20
2022-10-27T17:26:00,pkn,1.20
2022-10-27T17:28:00,pkn,1.20
2022-10-27T17:30:00,pkn,1.20
2022-10-27T17:32:00,pkn,1.20
2022-10-27T17:34:00,pkn,1.20
2022-10-27T17:36:00,pkn,1.20
2022-10-27T17:37:00,pkn,4.80
2022-10-27T17:39:00,pkn,8.40
2022-10-27T17:41:00,pkn,9.60
2022-10-27T17:42:00,pkn,6.00
2022-10-27T17:44:00,pkn,8.40
2022-10-27T17:46:00,pkn,2.40
2022-10-27T17:48:00,pkn,1.20
2022-10-27T17:50:00,pkn,2.40
2022-10-27T17:51:00,pkn,1.20
2022-10-27T17:53:00,pkn,1.20
2022-10-27T17:55:00,pkn,2.40
2022-10-27T17:56:00,pkn,1.20
2022-10-27T17:58:00,pkn,1.20
2022-10-27T17:59:00,pkn,1.20
2022-10-27T18:01:00,pkn,1.20
2022-10-27T18:02:00,pkn,2.40
2022-10-27T18:04:00,pkn,4.80
2022-10-27T18:06:00,pkn,3.60
2022-10-27T18:08:00,pkn,4.80
2022-10-27T18:10:00,pkn,4.80
2022-10-27T18:11:00,pkn,2.40
2022-10-27T18:13:00,pkn,2.40
2022-10-27T18:14:00,pkn,1.20
2022-10-27T18:17:00,pkn,2.40
2022-10-27T18:19:00,pkn,2.40
2022-10-27T18:22:00,pkn,2.40
2022-10-27T18:24:00,pkn,1.20
2022-10-27T18:26:00,pkn,2.40
2022-10-27T18:28:00,pkn,1.20
2022-10-27T18:30:00,pkn,2.40
2022-10-27T18:32:00,pkn,1.20
2022-10-27T18:34:00,pkn,2.40
2022-10-27T18:35:00,pkn,1.20
2022-10-27T18:36:00,pkn,1.20
2022-10-27T18:37:00,pkn,1.20
2022-10-27T18:39:00,pkn,1.20
2022-10-27T18:41:00,pkn,2.40
2022-10-27T18:42:00,pkn,1.20
2022-10-27T18:44:00,pkn,3.60
2022-10-27T18:45:00,pkn,1.20
2022-10-27T18:47:00,pkn,7.20
2022-10-27T18:48:00,pkn,7.20
2022-10-27T18:49:00,pkn,7.20
2022-10-27T18:50:00,pkn,1.20
2022-10-27T18:51:00,pkn,8.40
2022-10-27T18:52:00,pkn,7.20
2022-10-27T18:54:00,pkn,6.00
2022-10-27T18:56:00,pkn,1.20
2022-10-27T18:58:00,pkn,2.40
2022-10-27T19:00:00,pkn,1.20
2022-10-27T19:01:00,pkn,1.20
2022-10-27T19:03:00,pkn,2.40
2022-10-27T19:05:00,pkn,1.20
2022-10-27T19:06:00,pkn,1.20
2022-10-27T19:08:00,pkn,1.20
2022-10-27T19:09:00,pkn,1.20
2022-10-27T19:11:00,pkn,2.40
2022-10-27T19:13:00,pkn,1.20
2022-10-27T19:15:00,pkn,2.40
2022-10-27T19:17:00,pkn,1.20
2022-10-27T19:18:00,pkn,1.20
2022-10-27T19:20:00,pkn,1.20
2022-10-27T19:22:00,pkn,2.40
2022-10-27T19:24:00,pkn,2.40
2022-10-27T19:26:00,pkn,1.20
2022-10-27T19:28:00,pkn,2.40
2022-10-27T19:31:00,pkn,2.40
2022-10-27T19:33:00,pkn,2.40
2022-10-27T19:36:00,pkn,2.40
2022-10-27T19:38:00,pkn,2.40
2022-10-27T19:40:00,pkn,1.20
2022-10-27T19:42:00,pkn,2.40
2022-10-27T19:43:00,pkn,1.20
2022-10-27T19:44:00,pkn,1.20
2022-10-27T19:47:00,pkn,2.40
2022-10-27T19:49:00,pkn,1.20
2022-10-27T19:51:00,pkn,2.40
2022-10-27T19:53:00,pkn,1.20
2022-10-27T19:55:00,pkn,1.20
2022-10-27T19:57:00,pkn,2.40
2022-10-27T19:58:00,pkn,1.20
2022-10-27T20:01:00,pkn,2.40
2022-10-27T20:03:00,pkn,7.20
2022-10-27T20:04:00,pkn,1.20
2022-10-27T20:05:00,pkn,8.40
2022-10-27T20:06:00,pkn,1.20
2022-10-27T20:07:00,pkn,8.40
2022-10-27T20:08:00,pkn,6.00
2022-10-27T20:09:00,pkn,3.60
2022-10-27T20:11:00,pkn,1.20
2022-10-27T20:13:00,pkn,1.20
2022-10-27T20:14:00,pkn,1.20
2022-10-27T20:16:00,pkn,2.40
2022-10-27T20:19:00,pkn,2.40
2022-10-27T20:21:00,pkn,1.20
2022-10-27T20:23:00,pkn,1.20
2022-10-27T20:24:00,pkn,1.20
2022-10-27T20:25:00,pkn,1.20
2022-10-27T20:26:00,pkn,1.20
2022-10-27T20:28:00,pkn,1.20
2022-10-27T20:30:00,pkn,2.40
2022-10-27T20:32:00,pkn,1.20
2022-10-27T20:34:00,pkn,2.40
2022-10-27T20:35:00,pkn,1.20
2022-10-27T20:37:00,pkn,2.40
2022-10-27T20:39:00,pkn,2.40
2022-10-27T20:40:00,pkn,1.20
2022-10-27T20:42:00,pkn,2.40
2022-10-27T20:43:00,pkn,1.20
2022-10-27T20:45:00,pkn,1.20
2022-10-27T20:47:00,pkn,2.40
2022-10-27T20:48:00,pkn,1.20
2022-10-27T20:50:00,pkn,2.40
2022-10-27T20:51:00,pkn,1.20
2022-10-27T20:53:00,pkn,3.60
2022-10-27T20:54:00,pkn,1.20
2022-10-27T20:56:00,pkn,2.40
2022-10-27T20:58:00,pkn,2.40
2022-10-27T20:59:00,pkn,1.20
2022-10-27T21:01:00,pkn,2.40
2022-10-27T21:04:00,pkn,2.40
2022-10-27T21:06:00,pkn,2.40
2022-10-27T21:07:00,pkn,1.20
2022-10-27T21:09:00,pkn,2.40
2022-10-27T21:11:00,pkn,3.60
2022-10-27T21:12:00,pkn,4.80
2022-10-27T21:13:00,pkn,6.00
2022-10-27T21:15:00,pkn,10.80
2022-10-27T21:16:00,pkn,4.80
2022-10-27T21:18:00,pkn,10.80
2022-10-27T21:19:00,pkn,1.20
2022-10-27T21:22:00,pkn,2.40
2022-10-27T21:24:00,pkn,2.40
2022-10-27T21:26:00,pkn,2.40
2022-10-27T21:28:00,pkn,2.40
2022-10-27T21:29:00,pkn,1.20
2022-10-27T21:30:00,pkn,6.00
2022-10-27T21:32:00,pkn,10.80
2022-10-27T21:33:00,pkn,4.80
2022-10-27T21:35:00,pkn,10.80
2022-10-27T21:36:00,pkn,4.80
2022-10-27T21:38:00,pkn,9.60
2022-10-27T21:40:00,pkn,6.00
2022-10-27T21:41:00,pkn,1.20
2022-10-27T21:42:00,pkn,1.20
2022-10-27T21:44:00,pkn,2.40
2022-10-27T21:46:00,pkn,3.60
2022-10-27T21:48:00,pkn,1.20
2022-10-27T21:50:00,pkn,2.40
2022-10-27T21:52:00,pkn,1.20
2022-10-27T21:54:00,pkn,2.40
2022-10-27T21:56:00,pkn,2.40
2022-10-27T21:58:00,pkn,1.20
2022-10-27T21:59:00,pkn,1.20
2022-10-27T22:01:00,pkn,2.40
2022-10-27T22:03:00,pkn,6.00
2022-10-27T22:05:00,pkn,10.80
2022-10-27T22:07:00,pkn,10.80
2022-10-27T22:08:00,pkn,5.99
2022-10-27T22:10:00,pkn,8.40
2022-10-27T22:12:00,pkn,7.20
2022-10-27T22:14:00,pkn,1.20
2022-10-27T22:16:00,pkn,2.40
2022-10-27T22:17:00,pkn,1.20
2022-10-27T22:19:00,pkn,2.40
2022-10-27T22:20:00,pkn,1.20
2022-10-27T22:22:00,pkn,1.20
2022-10-27T22:24:00,pkn,2.40
2022-10-27T22:26:00,pkn,1.20
2022-10-27T22:27:00,pkn,1.20
2022-10-27T22:28:00,pkn,1.20
2022-10-27T22:30:00,pkn,2.40
2022-10-27T22:32:00,pkn,1.20
2022-10-27T22:33:00,pkn,1.20
2022-10-27T22:35:00,pkn,2.40
2022-10-27T22:36:00,pkn,1.20
2022-10-27T22:38:00,pkn,2.40
2022-10-27T22:41:00,pkn,2.40
2022-10-27T22:43:00,pkn,2.40
2022-10-27T22:45:00,pkn,1.20
2022-10-27T22:46:00,pkn,1.20
2022-10-27T22:48:00,pkn,2.40
2022-10-27T22:50:00,pkn,1.20
2022-10-27T22:52:00,pkn,2.40
2022-10-27T22:54:00,pkn,6.00
2022-10-27T22:56:00,pkn,9.60
2022-10-27T22:58:00,pkn,9.60
2022-10-27T23:00:00,pkn,10.80
2022-10-27T23:02:00,pkn,8.40
2022-10-27T23:03:00,pkn,1.20
2022-10-27T23:05:00,pkn,2.40
2022-10-27T23:07:00,pkn,1.20
2022-10-27T23:09:00,pkn,2.40
2022-10-27T23:11:00,pkn,2.40
2022-10-27T23:12:00,pkn,1.20
2022-10-27T23:14:00,pkn,2.40
2022-10-27T23:16:00,pkn,2.40
2022-10-27T23:18:00,pkn,1.20
2022-10-27T23:20:00,pkn,2.40
2022-10-27T23:22:00,pkn,2.40
2022-10-27T23:24:00,pkn,6.00
2022-10-27T23:26:00,pkn,10.80
2022-10-27T23:27:00,pkn,6.00
2022-10-27T23:29:00,pkn,10.80
2022-10-27T23:31:00,pkn,9.60
2022-10-27T23:32:00,pkn,4.80
2022-10-27T23:34:00,pkn,10.80
2022-10-27T23:36:00,pkn,9.60
2022-10-27T23:37:00,pkn,4.80
2022-10-27T23:39:00,pkn,9.60
2022-10-27T23:41:00,pkn,10.80
2022-10-27T23:43:00,pkn,9.60
2022-10-27T23:45:00,pkn,9.60
2022-10-27T23:47:00,pkn,9.59
2022-10-27T23:49:00,pkn,9.60
2022-10-27T23:50:00,pkn,4.80
2022-10-27T23:52:00,pkn,2.40
2022-10-27T23:54:00,pkn,1.20
2022-10-27T23:55:00,pkn,1.20
2022-10-27T23:57:00,pkn,1.20
2022-10-27T23:59:00,pkn,1.20
